| time (UTC) | temp F | wind direction | speed MPH | gust MPH | rain 1hr in | rain 24hr in | rain mn in | humidity % | barometer mb |
| 20260901005216 | 96 | 158 | 2.0 | 4.0 | 0.00 | 0.00 | 0.00 | 37 | 1012.6 |
| 20260901004217 | 96 | 135 | 1.0 | 3.0 | 0.00 | 0.00 | 0.00 | 37 | 1012.5 |
| 20260901003216 | 97 | 0 | 5.0 | 8.0 | 0.00 | 0.00 | 0.00 | 36 | 1012.5 |
| 20260901002216 | 97 | 0 | 4.0 | 6.0 | 0.00 | 0.00 | 0.00 | 35 | 1012.4 |
| 20260901001216 | 97 | 0 | 5.0 | 7.0 | 0.00 | 0.00 | 0.00 | 35 | 1012.5 |
| 20260901000218 | 98 | 0 | 5.0 | 7.0 | 0.00 | 0.00 | 0.00 | 35 | 1012.4 |
| 20260831235216 | 98 | 0 | 5.0 | 7.0 | 0.00 | 0.00 | 0.00 | 34 | 1012.4 |
| 20260831234216 | 98 | 0 | 5.0 | 7.0 | 0.00 | 0.00 | 0.00 | 35 | 1012.4 |
| 20260831233236 | 99 | 0 | 4.0 | 8.0 | 0.00 | 0.00 | 0.00 | 34 | 1012.5 |
| 20260831232216 | 99 | 0 | 5.0 | 8.0 | 0.00 | 0.00 | 0.00 | 34 | 1012.4 |
| 20260831231216 | 99 | 0 | 7.0 | 8.0 | 0.00 | 0.00 | 0.00 | 34 | 1012.5 |
| 20260831230236 | 99 | 203 | 4.0 | 8.0 | 0.00 | 0.00 | 0.00 | 33 | 1012.6 |
| 20260831225216 | 99 | 0 | 5.0 | 7.0 | 0.00 | 0.00 | 0.00 | 33 | 1012.6 |
| 20260831224216 | 100 | 0 | 5.0 | 9.0 | 0.00 | 0.00 | 0.00 | 33 | 1012.8 |
| 20260831223216 | 100 | 0 | 7.0 | 11.0 | 0.00 | 0.00 | 0.00 | 32 | 1012.8 |
| 20260831222216 | 100 | 0 | 5.0 | 7.0 | 0.00 | 0.00 | 0.00 | 32 | 1012.8 |
| 20260831221216 | 100 | 0 | 5.0 | 7.0 | 0.00 | 0.00 | 0.00 | 32 | 1012.9 |
| 20260831220216 | 100 | 135 | 5.0 | 8.0 | 0.00 | 0.00 | 0.00 | 32 | 1013.0 |
| 20260831215216 | 99 | 248 | 3.0 | 5.0 | 0.00 | 0.00 | 0.00 | 32 | 1013.0 |
| 20260831214216 | 99 | 0 | 7.0 | 9.0 | 0.00 | 0.00 | 0.00 | 32 | 1013.2 |
| 20260831213216 | 98 | 135 | 3.0 | 5.0 | 0.00 | 0.00 | 0.00 | 33 | 1013.2 |
| 20260831212216 | 98 | 0 | 6.0 | 8.0 | 0.00 | 0.00 | 0.00 | 31 | 1013.3 |
| 20260831211216 | 99 | 0 | 1.0 | 4.0 | 0.00 | 0.00 | 0.00 | 31 | 1013.5 |
| 20260831210216 | 98 | 0 | 6.0 | 9.0 | 0.00 | 0.00 | 0.00 | 32 | 1013.5 |
| 20260831205216 | 99 | 225 | 4.0 | 5.0 | 0.00 | 0.00 | 0.00 | 30 | 1013.7 |
| 20260831204215 | 99 | 0 | 6.0 | 9.0 | 0.00 | 0.00 | 0.00 | 31 | 1013.9 |
| 20260831203216 | 99 | 0 | 7.0 | 10.0 | 0.00 | 0.00 | 0.00 | 31 | 1014.0 |
| 20260831202215 | 99 | 0 | 5.0 | 7.0 | 0.00 | 0.00 | 0.00 | 32 | 1014.2 |
| 20260831201236 | 99 | 0 | 5.0 | 8.0 | 0.00 | 0.00 | 0.00 | 32 | 1014.2 |
| 20260831200215 | 99 | 0 | 4.0 | 8.0 | 0.00 | 0.00 | 0.00 | 32 | 1014.2 |
| 20260831195216 | 99 | 0 | 5.0 | 8.0 | 0.00 | 0.00 | 0.00 | 33 | 1014.5 |
| 20260831194216 | 99 | 0 | 8.0 | 11.0 | 0.00 | 0.00 | 0.00 | 33 | 1014.6 |
| 20260831193216 | 99 | 0 | 7.0 | 11.0 | 0.00 | 0.00 | 0.00 | 32 | 1014.7 |
| 20260831192215 | 99 | 0 | 6.0 | 8.0 | 0.00 | 0.00 | 0.00 | 32 | 1014.7 |
| 20260831191216 | 99 | 225 | 7.0 | 9.0 | 0.00 | 0.00 | 0.00 | 31 | 1014.9 |
| 20260831190215 | 99 | 225 | 7.0 | 11.0 | 0.00 | 0.00 | 0.00 | 32 | 1014.9 |
| 20260831185215 | 98 | 180 | 7.0 | 10.0 | 0.00 | 0.00 | 0.00 | 33 | 1015.0 |
| 20260831184215 | 98 | 0 | 10.0 | 14.0 | 0.00 | 0.00 | 0.00 | 36 | 1015.3 |
| 20260831183236 | 97 | 203 | 7.0 | 11.0 | 0.00 | 0.00 | 0.00 | 34 | 1015.2 |
| 20260831182215 | 98 | 225 | 6.0 | 8.0 | 0.00 | 0.00 | 0.00 | 36 | 1015.4 |
| 20260831181215 | 97 | 203 | 6.0 | 9.0 | 0.00 | 0.00 | 0.00 | 36 | 1015.4 |
| 20260831180215 | 97 | 203 | 5.0 | 10.0 | 0.00 | 0.00 | 0.00 | 38 | 1015.7 |
| 20260831175316 | 98 | 135 | 5.0 | 9.0 | 0.00 | 0.00 | 0.00 | 37 | 1015.8 |
| 20260831174215 | 98 | 0 | 6.0 | 10.0 | 0.00 | 0.00 | 0.00 | 38 | 1015.9 |
| 20260831173215 | 97 | 135 | 6.0 | 8.0 | 0.00 | 0.00 | 0.00 | 38 | 1016.1 |
| 20260831172215 | 97 | 158 | 3.0 | 5.0 | 0.00 | 0.00 | 0.00 | 39 | 1016.2 |
| 20260831171215 | 96 | 0 | 6.0 | 9.0 | 0.00 | 0.00 | 0.00 | 40 | 1016.3 |
| 20260831170215 | 95 | 225 | 7.0 | 8.0 | 0.00 | 0.00 | 0.00 | 41 | 1016.2 |
| 20260831165255 | 95 | 0 | 8.0 | 11.0 | 0.00 | 0.00 | 0.00 | 41 | 1016.2 |
| 20260831164217 | 95 | 180 | 3.0 | 6.0 | 0.00 | 0.00 | 0.00 | 41 | 1016.4 |
| 20260831163217 | 94 | 203 | 5.0 | 7.0 | 0.00 | 0.00 | 0.00 | 41 | 1016.4 |
| 20260831162217 | 94 | 0 | 6.0 | 12.0 | 0.00 | 0.00 | 0.00 | 41 | 1016.4 |
| 20260831161217 | 94 | 0 | 5.0 | 7.0 | 0.00 | 0.00 | 0.00 | 42 | 1016.6 |
| 20260831160237 | 93 | 203 | 5.0 | 9.0 | 0.00 | 0.00 | 0.00 | 45 | 1016.5 |
| 20260831155217 | 92 | 0 | 5.0 | 9.0 | 0.00 | 0.00 | 0.00 | 44 | 1016.5 |
| 20260831154217 | 92 | 0 | 7.0 | 16.0 | 0.00 | 0.00 | 0.00 | 47 | 1016.5 |
| 20260831153217 | 91 | 0 | 10.0 | 13.0 | 0.00 | 0.00 | 0.00 | 48 | 1016.4 |
| 20260831152217 | 90 | 225 | 6.0 | 8.0 | 0.00 | 0.00 | 0.00 | 49 | 1016.4 |
| 20260831151217 | 90 | 158 | 3.0 | 7.0 | 0.00 | 0.00 | 0.00 | 51 | 1016.3 |
| 20260831150217 | 89 | 203 | 6.0 | 11.0 | 0.00 | 0.00 | 0.00 | 52 | 1016.3 |
| 20260831145217 | 88 | 225 | 8.0 | 12.0 | 0.00 | 0.00 | 0.00 | 55 | 1016.2 |
| 20260831144217 | 87 | 0 | 5.0 | 8.0 | 0.00 | 0.00 | 0.00 | 58 | 1016.2 |
| 20260831143217 | 86 | 0 | 7.0 | 9.0 | 0.00 | 0.00 | 0.00 | 61 | 1016.2 |
| 20260831142217 | 86 | 225 | 7.0 | 9.0 | 0.00 | 0.00 | 0.00 | 63 | 1016.2 |
| 20260831141217 | 84 | 0 | 6.0 | 9.0 | 0.00 | 0.00 | 0.00 | 65 | 1016.2 |
| 20260831140217 | 84 | 0 | 6.0 | 9.0 | 0.00 | 0.00 | 0.00 | 67 | 1016.2 |
| 20260831135217 | 82 | 0 | 3.0 | 5.0 | 0.00 | 0.00 | 0.00 | 68 | 1016.1 |
| 20260831134217 | 82 | 0 | 5.0 | 8.0 | 0.00 | 0.00 | 0.00 | 68 | 1015.9 |
| 20260831133217 | 81 | 0 | 4.0 | 5.0 | 0.00 | 0.00 | 0.00 | 69 | 1015.8 |
| 20260831132217 | 80 | 180 | 4.0 | 5.0 | 0.00 | 0.00 | 0.00 | 69 | 1015.7 |
| 20260831131217 | 79 | 225 | 5.0 | 7.0 | 0.00 | 0.00 | 0.00 | 70 | 1015.6 |
| 20260831130216 | 78 | 203 | 5.0 | 8.0 | 0.00 | 0.00 | 0.00 | 71 | 1015.4 |
| 20260831125217 | 78 | 180 | 2.0 | 5.0 | 0.00 | 0.00 | 0.00 | 71 | 1015.2 |
| 20260831124217 | 77 | 203 | 3.0 | 4.0 | 0.00 | 0.00 | 0.00 | 71 | 1015.1 |
| 20260831123216 | 77 | 180 | 3.0 | 5.0 | 0.00 | 0.00 | 0.00 | 71 | 1014.9 |
| 20260831122216 | 77 | 0 | 2.0 | 4.0 | 0.00 | 0.00 | 0.00 | 71 | 1014.8 |
| 20260831121216 | 77 | 180 | 2.0 | 4.0 | 0.00 | 0.00 | 0.00 | 71 | 1014.6 |
| 20260831120217 | 77 | 203 | 4.0 | 5.0 | 0.00 | 0.00 | 0.00 | 71 | 1014.5 |
| 20260831115216 | 77 | 203 | 4.0 | 5.0 | 0.00 | 0.00 | 0.00 | 70 | 1014.3 |
| 20260831114217 | 77 | 203 | 2.0 | 4.0 | 0.00 | 0.00 | 0.00 | 69 | 1014.3 |
| 20260831113216 | 77 | 180 | 4.0 | 6.0 | 0.00 | 0.00 | 0.00 | 69 | 1014.3 |
| 20260831112216 | 77 | 203 | 5.0 | 7.0 | 0.00 | 0.00 | 0.00 | 68 | 1014.2 |
| 20260831111216 | 78 | 203 | 5.0 | 6.0 | 0.00 | 0.00 | 0.00 | 68 | 1014.1 |
| 20260831110216 | 78 | 180 | 3.0 | 5.0 | 0.00 | 0.00 | 0.00 | 67 | 1014.0 |
| 20260831105216 | 78 | 158 | 2.0 | 4.0 | 0.00 | 0.00 | 0.00 | 67 | 1013.9 |
| 20260831104216 | 78 | 180 | 2.0 | 2.0 | 0.00 | 0.00 | 0.00 | 66 | 1013.9 |
| 20260831103216 | 78 | 203 | 2.0 | 3.0 | 0.00 | 0.00 | 0.00 | 66 | 1013.8 |
| 20260831102216 | 79 | 180 | 3.0 | 4.0 | 0.00 | 0.00 | 0.00 | 65 | 1013.9 |
| 20260831101216 | 79 | 0 | 4.0 | 7.0 | 0.00 | 0.00 | 0.00 | 65 | 1013.9 |
| 20260831100216 | 79 | 180 | 2.0 | 5.0 | 0.00 | 0.00 | 0.00 | 64 | 1013.7 |
| 20260831095216 | 79 | 203 | 2.0 | 4.0 | 0.00 | 0.00 | 0.00 | 63 | 1013.6 |
| 20260831094216 | 80 | 158 | 3.0 | 5.0 | 0.00 | 0.00 | 0.00 | 63 | 1013.7 |
| 20260831093216 | 80 | 180 | 3.0 | 5.0 | 0.00 | 0.00 | 0.00 | 62 | 1013.7 |
| 20260831092216 | 80 | 158 | 1.0 | 2.0 | 0.00 | 0.00 | 0.00 | 62 | 1013.7 |
| 20260831091216 | 80 | 158 | 1.0 | 3.0 | 0.00 | 0.00 | 0.00 | 61 | 1013.6 |
| 20260831090216 | 81 | 0 | 2.0 | 4.0 | 0.00 | 0.00 | 0.00 | 61 | 1013.5 |
| 20260831085216 | 81 | 180 | 2.0 | 4.0 | 0.00 | 0.00 | 0.00 | 60 | 1013.5 |
| 20260831084216 | 81 | 158 | 3.0 | 4.0 | 0.00 | 0.00 | 0.00 | 60 | 1013.4 |
| 20260831083216 | 81 | 135 | 3.0 | 5.0 | 0.00 | 0.00 | 0.00 | 60 | 1013.4 |
| 20260831082216 | 81 | 158 | 3.0 | 6.0 | 0.00 | 0.00 | 0.00 | 60 | 1013.5 |
| 20260831081216 | 81 | 158 | 2.0 | 4.0 | 0.00 | 0.00 | 0.00 | 60 | 1013.3 |
| 20260831080216 | 81 | 135 | 2.0 | 3.0 | 0.00 | 0.00 | 0.00 | 60 | 1013.2 |
| 20260831075216 | 81 | 135 | 2.0 | 3.0 | 0.00 | 0.00 | 0.00 | 59 | 1013.2 |
| 20260831074236 | 81 | 135 | 1.0 | 1.0 | 0.00 | 0.00 | 0.00 | 59 | 1013.3 |
| 20260831073216 | 82 | 0.0 | 0.0 | 0.00 | 0.00 | 0.00 | 58 | 1013.3 | |
| 20260831072216 | 82 | 0.0 | 0.0 | 0.00 | 0.00 | 0.00 | 57 | 1013.3 | |
| 20260831071216 | 82 | 135 | 1.0 | 2.0 | 0.00 | 0.00 | 0.00 | 57 | 1013.3 |
| 20260831070216 | 83 | 203 | 2.0 | 3.0 | 0.00 | 0.00 | 0.00 | 56 | 1013.3 |
| 20260831065216 | 83 | 203 | 1.0 | 2.0 | 0.00 | 0.00 | 0.00 | 56 | 1013.4 |
| 20260831064216 | 83 | 180 | 1.0 | 2.0 | 0.00 | 0.00 | 0.00 | 55 | 1013.4 |
| 20260831063216 | 84 | 203 | 2.0 | 2.0 | 0.00 | 0.00 | 0.00 | 55 | 1013.3 |
| 20260831062216 | 84 | 203 | 2.0 | 4.0 | 0.00 | 0.00 | 0.00 | 54 | 1013.3 |
| 20260831061215 | 84 | 0 | 3.0 | 6.0 | 0.00 | 0.00 | 0.00 | 54 | 1013.3 |
| 20260831060216 | 84 | 0 | 3.0 | 5.0 | 0.00 | 0.00 | 0.00 | 53 | 1013.3 |
| 20260831055216 | 84 | 203 | 2.0 | 4.0 | 0.00 | 0.00 | 0.00 | 53 | 1013.2 |
| 20260831054235 | 85 | 180 | 2.0 | 2.0 | 0.00 | 0.00 | 0.00 | 52 | 1013.3 |
| 20260831053215 | 85 | 180 | 2.0 | 4.0 | 0.00 | 0.00 | 0.00 | 52 | 1013.3 |
| 20260831052215 | 85 | 203 | 2.0 | 4.0 | 0.00 | 0.00 | 0.00 | 51 | 1013.3 |
| 20260831051236 | 85 | 203 | 2.0 | 4.0 | 0.00 | 0.00 | 0.00 | 51 | 1013.1 |
| 20260831050215 | 86 | 203 | 2.0 | 4.0 | 0.00 | 0.00 | 0.00 | 51 | 1013.0 |
| 20260831045215 | 86 | 180 | 3.0 | 4.0 | 0.00 | 0.00 | 0.00 | 51 | 1013.0 |
| 20260831044215 | 85 | 180 | 2.0 | 3.0 | 0.00 | 0.00 | 0.00 | 51 | 1013.2 |
| 20260831043215 | 86 | 180 | 1.0 | 1.0 | 0.00 | 0.00 | 0.00 | 51 | 1013.2 |
| 20260831042235 | 86 | 0 | 2.0 | 3.0 | 0.00 | 0.00 | 0.00 | 50 | 1013.2 |
| 20260831041217 | 87 | 180 | 3.0 | 5.0 | 0.00 | 0.00 | 0.00 | 49 | 1013.2 |
| 20260831040217 | 87 | 180 | 2.0 | 3.0 | 0.00 | 0.00 | 0.00 | 48 | 1013.1 |
| 20260831035217 | 88 | 0 | 2.0 | 3.0 | 0.00 | 0.00 | 0.00 | 48 | 1013.0 |
| 20260831034237 | 88 | 0 | 3.0 | 6.0 | 0.00 | 0.00 | 0.00 | 47 | 1012.9 |
| 20260831033217 | 88 | 180 | 2.0 | 5.0 | 0.00 | 0.00 | 0.00 | 47 | 1012.8 |
| 20260831032217 | 89 | 0 | 2.0 | 5.0 | 0.00 | 0.00 | 0.00 | 46 | 1012.8 |
| 20260831031235 | 89 | 180 | 2.0 | 5.0 | 0.00 | 0.00 | 0.00 | 46 | 1012.8 |
| 20260831030217 | 89 | 0.0 | 1.0 | 0.00 | 0.00 | 0.00 | 45 | 1012.8 | |
| 20260831025217 | 90 | 180 | 2.0 | 4.0 | 0.00 | 0.00 | 0.00 | 45 | 1012.6 |
| 20260831024217 | 90 | 203 | 2.0 | 4.0 | 0.00 | 0.00 | 0.00 | 45 | 1012.6 |
| 20260831023217 | 90 | 0.0 | 2.0 | 0.00 | 0.00 | 0.00 | 44 | 1012.4 | |
| 20260831022217 | 91 | 203 | 1.0 | 2.0 | 0.00 | 0.00 | 0.00 | 44 | 1012.4 |
| 20260831021217 | 91 | 203 | 2.0 | 2.0 | 0.00 | 0.00 | 0.00 | 43 | 1012.1 |
| 20260831020217 | 92 | 203 | 1.0 | 2.0 | 0.00 | 0.00 | 0.00 | 42 | 1012.0 |
| 20260831015217 | 92 | 203 | 1.0 | 2.0 | 0.00 | 0.00 | 0.00 | 42 | 1011.8 |
| 20260831014217 | 93 | 180 | 1.0 | 3.0 | 0.00 | 0.00 | 0.00 | 41 | 1011.7 |
| 20260831013217 | 93 | 180 | 2.0 | 4.0 | 0.00 | 0.00 | 0.00 | 40 | 1011.7 |
| 20260831012217 | 94 | 180 | 3.0 | 4.0 | 0.00 | 0.00 | 0.00 | 40 | 1011.6 |
| 20260831011217 | 94 | 203 | 2.0 | 5.0 | 0.00 | 0.00 | 0.00 | 39 | 1011.5 |
| 20260831010216 | 95 | 180 | 3.0 | 5.0 | 0.00 | 0.00 | 0.00 | 38 | 1011.5 |